{"data":{"norad_id":68133,"intl_designator":"2026-047E","name":"HULIANWANG DIGUI-159","alt_names":[],"object_type":"PAYLOAD","status":"ACTIVE","operator":null,"country":"PRC","launch_date":"2026-03-12","launch_site_code":"WSC","launch_vehicle":null,"mission":null,"orbit_class":"UNKNOWN","rcs_meters":null,"size_class":null,"mass_kg":null,"dimensions":null,"purposes":[],"wikipedia_slug":null,"has_3d_model":false,"image_url":null,"decayed_at":null,"tle_current":{"epoch":"2026-05-24T08:44:12.640416Z","epoch_age_seconds":120193,"freshness":"FRESH","line1":"1 68133U 26047E   26144.36403519 -.00000095  00000+0  62635-4 0  9998","line2":"2 68133  49.9994 141.5302 0000425   0.2138 359.8734 13.29330661  9909","mean_motion":13.29330661,"eccentricity":4.25e-5,"inclination_deg":49.9994,"raan_deg":141.5302,"arg_perigee_deg":0.2138,"mean_anomaly_deg":359.8734,"bstar":6.2635e-5,"rev_number":990,"period_min":108.32519268883,"perigee_km":1148.9690607104,"apogee_km":1149.6088919184,"semimajor_km":7527.4259763144,"source":"CELESTRAK","updated_at":"2026-05-25T13:38:07.576578Z"}}}